Tracking 25701 objects as of 3-Jul-2022
HD Live streaming from Space Station
objects crossing your sky now

FENGYUN 1C DEB

Track FENGYUN 1C DEB now!
10-day predictions


NORAD ID: 36689
Int'l Code: 1999-025DZK
Perigee: 775.5 km
Apogee: 1,283.8 km
Inclination: 98.5 °
Period: 105.6 minutes
Semi major axis: 7400 km
RCS: 0.0112 m2 (small)
Launch date: May 10, 1999
Source: People's Republic of China (PRC)
Launch site: Taiyaun Space Center, China (TSC)

Note: This is SATELLITE DEBRIS
aabbcc
Your satellite tracking list
Your tracking list is empty




NASA's NSSDC Master Catalog

Two Line Element Set (TLE):
1 36689U 99025DZK 22184.31758674  .00000416  00000-0  38201-3 0  9993
2 36689  98.4592 212.6989 0343384  51.4557 311.6840 13.63632840709230
Source of the keplerian elements: AFSPC